Location: Austin
(30.3000°N, 97.7500°W)
Time: 22:29:43
(UTC-06:00)

Cosmos 220 Rocket - Pass Details

Date: 03 December 2025
Orbit: 542 x 576 km, 74.0° (Epoch: 07 December)

Event Time Altitude Azimuth Distance (km) Brightness Sun altitude
Rises 06:28:40 0° 204° (SSW) 2,686 7.3 -9.4°
Reaches altitude 10° 06:30:52 10° 209° (SSW) 1,800 6.4 -9.0°
Maximum altitude 06:34:47 54° 287° (WNW) 662 3.9 -8.2°
Drops below altitude 10° 06:38:45 10° 6° (N) 1,824 6.3 -7.4°
Sets 06:40:59 0° 11° (N) 2,726 7.3 -6.9°
